San Antonio, TX

7:37 AM CST on January 18, 2017 (GMT -0600)
San Antonio International

Weather History for KSAT - February, 2014

Change the Weather History Date:

Friday, February 14, 2014

  Actual Average Record
Temperature  
Mean Temperature 67 °F 55 °F  
Max Temperature 92 °F 67 °F 92 °F (2014)
Min Temperature 42 °F 44 °F 20 °F (1905)
Degree Days  
Heating Degree Days 0 10  
Month to date heating degree days 212 159  
Since 1 July heating degree days 1280 1177  
Cooling Degree Days 2 1  
Month to date cooling degree days 10 10  
Year to date cooling degree days 13 17  
Growing Degree Days 16 (Base 50)    
Moisture  
Dew Point 37 °F    
Average Humidity 47    
Maximum Humidity 83    
Minimum Humidity 11    
Precipitation  
Precipitation 0.00 in 0.06 in 1.03 in (1951)
Month to date precipitation 0.21 0.89  
Year to date precipitation 0.44 2.65  
Snow  
Snow 0.00 in - - ()
Month to date snowfall 0.3  
Since 1 July snowfall 0.4  
Snow Depth 0.00 in    
Sea Level Pressure  
Sea Level Pressure 29.90 in    
Wind  
Wind Speed 7 mph (North)    
Max Wind Speed 18 mph    
Max Gust Speed 26 mph    
Visibility 10 miles    
Events      
T = Trace of Precipitation, MM = Missing Value Source: NWS Daily Summary

Daily Weather History Graph

Daily Weather History Graph

Search for Another Location

Airport or City:

Trip Planner

Search our weather history database for the weather conditions in past years. The results will help you decide how hot, cold, wet, or windy it might be!

Date:

Astronomy

Feb. 14, 2014 Rise Set
Actual Time 7:13 AM CST 6:22 PM CST
Civil Twilight 6:49 AM CST 6:46 PM CST
Nautical Twilight 6:21 AM CST 7:14 PM CST
Astronomical Twilight 5:53 AM CST 7:42 PM CST
Moon 6:23 PM CST (2/14) 6:44 AM CST (2/14)
Length of Visible Light 11h 57m
Length of Day
11h 08m
Full, 100% of the Moon is Illuminated
Feb 14
Full
Feb 14
Full
Feb 22
Last Quarter
Mar 1
New
Mar 8
First Quarter

Hourly Weather History & Observations

Time (CST) Temp. Windchill Dew Point Humidity Pressure Visibility Wind Dir Wind Speed Gust Speed Precip Events Conditions
12:51 AM 52.0 °F - 43.0 °F 71% 29.93 in 10.0 mi Calm Calm - N/A   Partly Cloudy
1:51 AM 48.9 °F - 42.1 °F 77% 29.91 in 10.0 mi Calm Calm - N/A   Partly Cloudy
2:51 AM 45.0 °F - 39.0 °F 80% 29.88 in 10.0 mi Calm Calm - N/A   Partly Cloudy
3:51 AM 44.1 °F 41.5 °F 39.0 °F 82% 29.88 in 10.0 mi WNW 4.6 mph - N/A   Partly Cloudy
4:51 AM 44.1 °F - 39.0 °F 82% 29.85 in 10.0 mi Calm Calm - N/A   Partly Cloudy
5:51 AM 43.0 °F - 37.9 °F 82% 29.86 in 10.0 mi Calm Calm - N/A   Partly Cloudy
6:51 AM 45.0 °F - 39.9 °F 82% 29.86 in 10.0 mi Calm Calm - N/A   Partly Cloudy
7:51 AM 46.0 °F 44.8 °F 41.0 °F 83% 29.87 in 10.0 mi WNW 3.5 mph - N/A   Clear
8:51 AM 55.0 °F - 46.9 °F 74% 29.89 in 10.0 mi WSW 5.8 mph - N/A   Partly Cloudy
9:51 AM 61.0 °F - 48.0 °F 62% 29.89 in 10.0 mi SW 9.2 mph - N/A   Partly Cloudy
10:51 AM 66.9 °F - 48.0 °F 51% 29.88 in 10.0 mi SW 8.1 mph - N/A   Partly Cloudy
11:51 AM 73.0 °F - 46.9 °F 39% 29.85 in 10.0 mi SSW 10.4 mph - N/A   Clear
12:51 PM 80.1 °F - 46.0 °F 30% 29.83 in 10.0 mi Variable 4.6 mph - N/A   Clear
1:51 PM 84.9 °F - 45.0 °F 25% 29.81 in 10.0 mi SSE 4.6 mph - N/A   Partly Cloudy
2:46 PM 91.4 °F - 28.4 °F 10% 29.85 in 10.0 mi North 15.0 mph 24.2 mph N/A   Partly Cloudy
2:51 PM 91.0 °F - 30.0 °F 11% 29.81 in 10.0 mi NNW 15.0 mph 24.2 mph N/A   Partly Cloudy
3:51 PM 89.1 °F - 28.9 °F 12% 29.82 in 10.0 mi North 18.4 mph 25.3 mph N/A   Partly Cloudy
4:51 PM 84.9 °F - 33.1 °F 16% 29.84 in 10.0 mi NNE 13.8 mph - N/A   Partly Cloudy
5:51 PM 81.0 °F - 30.9 °F 16% 29.89 in 10.0 mi NNE 11.5 mph - N/A   Partly Cloudy
6:51 PM 73.9 °F - 30.9 °F 21% 29.94 in 10.0 mi NNE 10.4 mph - N/A   Scattered Clouds
7:51 PM 70.0 °F - 33.1 °F 26% 29.98 in 10.0 mi NE 11.5 mph - N/A   Partly Cloudy
8:51 PM 66.9 °F - 33.1 °F 28% 30.00 in 10.0 mi NE 9.2 mph - N/A   Partly Cloudy
9:51 PM 64.0 °F - 33.1 °F 31% 30.02 in 10.0 mi NE 9.2 mph - N/A   Partly Cloudy
10:51 PM 62.1 °F - 30.0 °F 30% 30.04 in 10.0 mi NE 6.9 mph - N/A   Partly Cloudy
11:51 PM 55.9 °F - 28.9 °F 36% 30.06 in 10.0 mi NNE 3.5 mph - N/A   Partly Cloudy